Previsão horária em Aachen

Hoje, 29 Outubro, Quinta-feira

Tempo Temperatura Precipitação Vento Pressão Humidade
00:00 +9°C° 0 mm 6 m/s 741 mmHg 85%
01:00 +8°C° 0.2 mm 6 m/s 741 mmHg 86%
02:00 +8°C° 0.2 mm 6 m/s 742 mmHg 86%
03:00 +8°C° 0.2 mm 6 m/s 742 mmHg 87%
04:00 +7°C° 0.1 mm 6 m/s 743 mmHg 88%
05:00 +7°C° 0.1 mm 5 m/s 743 mmHg 88%
06:00 +6°C° 0 mm 4 m/s 744 mmHg 90%
07:00 +7°C° 0.1 mm 5 m/s 745 mmHg 87%
08:00 +8°C° 0.1 mm 6 m/s 745 mmHg 84%
09:00 +9°C° 0.1 mm 6 m/s 746 mmHg 81%
10:00 +9°C° 0.1 mm 6 m/s 746 mmHg 81%
11:00 +10°C° 0.1 mm 6 m/s 747 mmHg 81%
12:00 +10°C° 0 mm 5 m/s 747 mmHg 81%
13:00 +10°C° 0.5 mm 5 m/s 747 mmHg 85%
14:00 +9°C° 0.5 mm 5 m/s 747 mmHg 88%
15:00 +9°C° 0.5 mm 5 m/s 747 mmHg 92%
16:00 +9°C° 0.4 mm 5 m/s 747 mmHg 92%
17:00 +9°C° 0.4 mm 6 m/s 747 mmHg 91%
18:00 +9°C° 0.4 mm 6 m/s 747 mmHg 91%
19:00 +10°C° 0.4 mm 7 m/s 747 mmHg 91%
20:00 +10°C° 0.4 mm 7 m/s 747 mmHg 90%
21:00 +11°C° 0.4 mm 8 m/s 747 mmHg 90%
22:00 +11°C° 0.1 mm 8 m/s 747 mmHg 90%
23:00 +11°C° 0.1 mm 7 m/s 747 mmHg 90%

Amanhã, 30 Outubro, Sexta-feira

Tempo Temperatura Precipitação Vento Pressão Humidade
00:00 +11°C° 0.1 mm 7 m/s 747 mmHg 89%
01:00 +11°C° 0 mm 7 m/s 748 mmHg 89%
02:00 +11°C° 0 mm 7 m/s 748 mmHg 89%
03:00 +11°C° 0 mm 7 m/s 748 mmHg 89%
04:00 +11°C° 0 mm 7 m/s 748 mmHg 88%
05:00 +11°C° 0 mm 7 m/s 748 mmHg 88%
06:00 +11°C° 0 mm 7 m/s 748 mmHg 88%
07:00 +11°C° 0 mm 7 m/s 749 mmHg 87%
08:00 +12°C° 0 mm 7 m/s 749 mmHg 85%
09:00 +12°C° 0 mm 7 m/s 749 mmHg 84%
10:00 +12°C° 0 mm 7 m/s 749 mmHg 82%
11:00 +14°C° 0 mm 7 m/s 749 mmHg 81%
12:00 +14°C° 0 mm 7 m/s 750 mmHg 80%
13:00 +14°C° 0 mm 6 m/s 750 mmHg 80%
14:00 +14°C° 0 mm 5 m/s 750 mmHg 81%
15:00 +14°C° 0 mm 5 m/s 750 mmHg 81%
16:00 +14°C° 0 mm 4 m/s 751 mmHg 82%
17:00 +13°C° 0 mm 4 m/s 751 mmHg 83%
18:00 +13°C° 0 mm 4 m/s 751 mmHg 85%
19:00 +13°C° 0 mm 3 m/s 751 mmHg 85%
20:00 +13°C° 0 mm 3 m/s 751 mmHg 85%
21:00 +13°C° 0 mm 3 m/s 751 mmHg 85%
22:00 +12°C° 0 mm 3 m/s 751 mmHg 87%
23:00 +11°C° 0 mm 3 m/s 751 mmHg 90%

Depois de amanhã, 31 Outubro, Sábado

Tempo Temperatura Precipitação Vento Pressão Humidade
00:00 +10°C° 0 mm 3 m/s 751 mmHg 92%
01:00 +10°C° 0 mm 3 m/s 751 mmHg 91%
02:00 +9°C° 0 mm 3 m/s 751 mmHg 91%
03:00 +9°C° 0 mm 3 m/s 751 mmHg 91%
04:00 +9°C° 0 mm 3 m/s 750 mmHg 91%
05:00 +9°C° 0 mm 3 m/s 750 mmHg 90%
06:00 +8°C° 0 mm 3 m/s 750 mmHg 90%
07:00 +10°C° 0 mm 3 m/s 750 mmHg 87%
08:00 +11°C° 0 mm 4 m/s 749 mmHg 84%
09:00 +13°C° 0 mm 4 m/s 749 mmHg 80%
10:00 +14°C° 0 mm 4 m/s 749 mmHg 76%
11:00 +15°C° 0 mm 5 m/s 748 mmHg 73%
12:00 +16°C° 0 mm 5 m/s 747 mmHg 69%
13:00 +16°C° 0 mm 5 m/s 747 mmHg 70%
14:00 +15°C° 0 mm 5 m/s 746 mmHg 70%
15:00 +15°C° 0 mm 5 m/s 746 mmHg 71%
16:00 +14°C° 0 mm 5 m/s 746 mmHg 71%
17:00 +14°C° 0 mm 6 m/s 745 mmHg 72%
18:00 +13°C° 0 mm 6 m/s 745 mmHg 72%
19:00 +14°C° 0 mm 6 m/s 745 mmHg 73%
20:00 +14°C° 0 mm 6 m/s 745 mmHg 73%
21:00 +14°C° 0 mm 6 m/s 745 mmHg 73%
22:00 +14°C° 0.1 mm 6 m/s 745 mmHg 76%
23:00 +14°C° 0.1 mm 6 m/s 745 mmHg 79%

1 Novembro, Domingo

Tempo Temperatura Precipitação Vento Pressão Humidade
00:00 +14°C° 0.1 mm 6 m/s 744 mmHg 81%
01:00 +14°C° 0 mm 6 m/s 744 mmHg 82%
02:00 +14°C° 0 mm 5 m/s 744 mmHg 83%
03:00 +14°C° 0 mm 5 m/s 744 mmHg 84%
04:00 +13°C° 0.3 mm 5 m/s 744 mmHg 86%
05:00 +13°C° 0.3 mm 5 m/s 743 mmHg 88%
06:00 +13°C° 0.3 mm 6 m/s 743 mmHg 89%
07:00 +13°C° 0.1 mm 6 m/s 743 mmHg 89%
08:00 +14°C° 0.1 mm 6 m/s 743 mmHg 89%
09:00 +14°C° 0.1 mm 7 m/s 742 mmHg 89%
10:00 +13°C° 0.3 mm 8 m/s 742 mmHg 88%
11:00 +15°C° 0.3 mm 8 m/s 742 mmHg 87%
12:00 +15°C° 0.3 mm 9 m/s 741 mmHg 85%
13:00 +15°C° 0 mm 9 m/s 741 mmHg 85%
14:00 +15°C° 0 mm 9 m/s 741 mmHg 84%
15:00 +16°C° 0 mm 8 m/s 741 mmHg 84%
16:00 +16°C° 0.2 mm 8 m/s 741 mmHg 85%
17:00 +16°C° 0.2 mm 8 m/s 741 mmHg 86%
18:00 +16°C° 0.2 mm 8 m/s 741 mmHg 87%
19:00 +16°C° 0.8 mm 8 m/s 741 mmHg 87%
20:00 +16°C° 0.8 mm 8 m/s 740 mmHg 87%
21:00 +16°C° 0.8 mm 9 m/s 740 mmHg 87%
22:00 +16°C° 0 mm 9 m/s 740 mmHg 87%
23:00 +17°C° 0 mm 8 m/s 740 mmHg 87%

2 Novembro, Segunda-feira

Tempo Temperatura Precipitação Vento Pressão Humidade
00:00 +17°C° 0 mm 8 m/s 740 mmHg 87%
01:00 +17°C° 0 mm 8 m/s 740 mmHg 86%
02:00 +17°C° 0 mm 8 m/s 740 mmHg 84%
03:00 +17°C° 0 mm 8 m/s 739 mmHg 83%
04:00 +17°C° 0 mm 8 m/s 740 mmHg 83%
05:00 +17°C° 0 mm 8 m/s 740 mmHg 83%
06:00 +17°C° 0 mm 9 m/s 740 mmHg 82%
07:00 +17°C° 0 mm 9 m/s 740 mmHg 80%
08:00 +17°C° 0 mm 9 m/s 740 mmHg 78%
09:00 +17°C° 0 mm 9 m/s 740 mmHg 75%
10:00 +18°C° 0 mm 10 m/s 740 mmHg 72%
11:00 +18°C° 0 mm 10 m/s 740 mmHg 70%
12:00 +19°C° 0 mm 10 m/s 740 mmHg 67%
13:00 +19°C° 0 mm 9 m/s 740 mmHg 68%
14:00 +19°C° 0 mm 9 m/s 740 mmHg 69%
15:00 +18°C° 0 mm 8 m/s 740 mmHg 70%
16:00 +16°C° 0.8 mm 7 m/s 741 mmHg 76%
17:00 +14°C° 0.8 mm 5 m/s 742 mmHg 82%
18:00 +12°C° 0.8 mm 4 m/s 743 mmHg 88%
19:00 +11°C° 0.9 mm 4 m/s 744 mmHg 89%
20:00 +11°C° 0.9 mm 4 m/s 744 mmHg 90%
21:00 +10°C° 0.9 mm 4 m/s 745 mmHg 91%
22:00 +10°C° 0.1 mm 3 m/s 746 mmHg 91%
23:00 +9°C° 0.1 mm 3 m/s 746 mmHg 91%

3 Novembro, Terça-feira

Tempo Temperatura Precipitação Vento Pressão Humidade
00:00 +9°C° 0.1 mm 2 m/s 747 mmHg 91%
01:00 +9°C° 0 mm 2 m/s 747 mmHg 90%
02:00 +10°C° 0 mm 1 m/s 747 mmHg 90%
03:00 +10°C° 0 mm 1 m/s 747 mmHg 89%
04:00 +10°C° 0 mm 1 m/s 747 mmHg 89%
05:00 +10°C° 0 mm 1 m/s 747 mmHg 90%
06:00 +10°C° 0 mm 1 m/s 747 mmHg 90%
07:00 +11°C° 0.2 mm 1 m/s 747 mmHg 90%
08:00 +10°C° 0.2 mm 2 m/s 747 mmHg 90%
09:00 +10°C° 0.2 mm 2 m/s 747 mmHg 89%
10:00 +11°C° 0.1 mm 3 m/s 748 mmHg 83%
11:00 +10°C° 0.1 mm 5 m/s 748 mmHg 76%
12:00 +11°C° 0.1 mm 6 m/s 749 mmHg 70%
13:00 +10°C° 0 mm 5 m/s 749 mmHg 72%
14:00 +10°C° 0 mm 5 m/s 749 mmHg 73%
15:00 +10°C° 0 mm 4 m/s 749 mmHg 75%
16:00 +10°C° 0 mm 4 m/s 750 mmHg 77%
17:00 +8°C° 0 mm 4 m/s 750 mmHg 79%
18:00 +7°C° 0 mm 4 m/s 751 mmHg 81%
19:00 +7°C° 0 mm 4 m/s 751 mmHg 80%
20:00 +7°C° 0 mm 4 m/s 751 mmHg 79%
21:00 +7°C° 0 mm 4 m/s 751 mmHg 78%
22:00 +6°C° 0 mm 4 m/s 751 mmHg 78%
23:00 +6°C° 0 mm 4 m/s 751 mmHg 79%
Mostrar mais